This is the latest recevied weather packets stored in our database for station/object K1RFS. If no packets are shown the sender has not sent any weather packets the latest 10 day(s).
| Time | Temp. | Humidity | Pressure | Rain* | Wind** | Luminosity | Snow |
|---|---|---|---|---|---|---|---|
| 1787578404 | 21.11° C | 50% | 1007 hPa | 0 mm | - | 23 W/m² | - |
| 1787578103 | 21.11° C | 50% | 1007 hPa | 0 mm | - | 21 W/m² | - |
| 1787577799 | 20.56° C | 50% | 1006.9 hPa | 0 mm | - | 17 W/m² | - |
| 1787577494 | 20.56° C | 52% | 1006.8 hPa | 0 mm | - | 15 W/m² | - |
| 1787577191 | 20° C | 52% | 1007.1 hPa | 0 mm | - | 13 W/m² | - |
| 1787576887 | 20° C | 53% | 1007 hPa | 0 mm | - | 10 W/m² | - |
| 1787576587 | 20° C | 54% | 1006.9 hPa | 0 mm | - | 8 W/m² | - |
| 1787576283 | 20° C | 55% | 1006.8 hPa | 0 mm | - | 5 W/m² | - |
| 1787575978 | 20° C | 54% | 1006.8 hPa | 0 mm | - | 3 W/m² | - |
| 1787575673 | 18.89° C | 56% | 1006.9 hPa | 0 mm | - | 2 W/m² | - |
| 1787575369 | 18.89° C | 59% | 1006.8 hPa | 0 mm | - | 1 W/m² | - |
| 1787575064 | 18.89° C | 59% | 1006.8 hPa | 0 mm | - | 0 W/m² | - |
| 1787574759 | 18.89° C | 59% | 1006.6 hPa | 0 mm | - | 0 W/m² | - |
| 1787574455 | 19.44° C | 58% | 1006.8 hPa | 0 mm | - | 0 W/m² | - |
| 1787574154 | 19.44° C | 56% | 1006.6 hPa | 0 mm | - | 0 W/m² | - |
| 1787573853 | 20° C | 55% | 1006.8 hPa | 0 mm | - | 0 W/m² | - |
| 1787573553 | 20.56° C | 53% | 1006.9 hPa | 0 mm | - | 0 W/m² | - |
| 1787573250 | 20.56° C | 51% | 1006.8 hPa | 0 mm | - | 0 W/m² | - |
| 1787572945 | 20° C | 53% | 1006.5 hPa | 0 mm | - | 0 W/m² | - |
| 1787572641 | 20° C | 54% | 1006.6 hPa | 0 mm | - | 0 W/m² | - |
| 1787572340 | 20.56° C | 53% | 1006.8 hPa | 0 mm | - | 0 W/m² | - |
| 1787572035 | 20.56° C | 52% | 1006.8 hPa | 0 mm | - | 0 W/m² | - |
| 1787571735 | 20° C | 52% | 1006.6 hPa | 0 mm | - | 0 W/m² | - |
| 1787571434 | 20° C | 54% | 1006.4 hPa | 0 mm | - | 0 W/m² | - |
| 1787571129 | 20° C | 55% | 1006.6 hPa | 0 mm | - | 0 W/m² | - |
* Rain latest hour (hover to see other rain measurements)
** Current wind speed in m/s (hover to see current wind gust speed)